Probability
6 0 6 13 6 10 10 13 6 6 10 3 0 0 0 0 3 10 26 16 16 10 6 6 6 3 3 0 0 3 3 3 3 6 10 6 6 10 6 10 6 10 10
0 0 3 6 3 6 3 10 3 3 6 6 3 0 0 0 3 6 16 13 10 13 10 6 6 3 0 0 0 3 3 3 0 0 6 3 6 6 10 10 13 13 13
0 3 0 0 0 0 3 3 0 0 3 3 3 0 0 0 10 3 3 6 3 6 13 6 0 0 0 0 0 0 0 0 3 3 3 3 10 13 13 13 10 10 10
0 3 0 0 0 0 0 10 6 3 0 3 0 0 0 6 3 3 3 6 10 3 3 3 3 3 3 0 0 0 3 3 3 0 0 0 6 6 10 10 10 10 10
0 10 6 3 0 0 3 3 6 6 0 0 0 0 0 0 3 3 3 3 3 3 3 0 0 0 0 0 0 0 0 0 0 0 0 0 3 3 6 10 10 10 10
0 3 3 3 3 3 6 6 6 6 10 3 0 0 0 0 0 3 3 3 3 0 0 0 0 0 0 0 0 0 0 0 0 0 0 0 0 3 10 6 6 10 10
3 3 3 3 10 6 6 6 3 6 3 3 0 0 3 0 0 0 0 0 0 0 0 0 0 0 0 0 0 0 0 0 0 0 0 0 0 0 6 6 6 3 6
3 0 6 6 10 13 6 6 3 6 3 3 3 3 0 0 0 0 0 0 0 0 0 0 0 0 0 0 0 0 0 0 0 0 0 0 0 0 0 10 6 3 3
3 0 3 3 0 3 13 10 6 3 3 3 3 3 3 0 0 0 0 0 0 0 0 0 0 0 0 0 0 0 0 0 0 0 0 0 0 0 0 3 3 3 3
0 0 0 6 3 3 10 6 6 10 6 6 3 3 3 3 3 0 0 0 0 0 0 0 0 0 0 0 0 0 0 0 0 0 0 0 0 0 0 3 3 3 3
0 0 3 3 3 3 3 6 6 6 10 10 3 3 3 3 3 3 3 0 0 0 0 0 0 0 0 0 0 0 0 0 0 0 0 0 3 3 3 3 3 3 3
0 0 0 3 3 0 6 6 10 10 6 6 6 3 3 3 3 3 3 3 0 0 0 0 0 0 0 0 0 0 0 0 0 0 0 3 3 3 3 3 3 3 6
3 0 3 3 3 3 6 6 10 6 6 3 3 3 3 3 3 3 3 0 0 0 0 0 0 0 0 0 0 0 0 0 0 0 0 0 3 3 3 3 3 3 0
3 0 3 3 3 3 3 6 10 6 3 3 0 3 6 3 3 3 3 0 0 0 0 0 0 0 0 0 0 0 0 0 0 0 0 0 0 0 0 0 0 0 0
3 0 3 3 3 3 3 3 10 6 6 3 3 3 3 3 3 3 3 3 0 0 0 0 0 0 0 0 0 0 0 0 0 0 0 0 0 0 0 0 0 0 0
6 3 3 3 3 3 3 3 3 10 3 3 6 3 3 3 3 3 3 3 0 3 0 0 0 0 0 0 0 0 0 0 0 0 0 0 0 0 0 0 0 0 0
3 3 6 3 3 3 3 6 3 3 3 3 3 3 3 3 3 3 3 0 0 6 0 0 0 0 0 0 0 0 0 0 0 0 0 0 0 0 0 0 0 0 0
6 3 3 3 3 3 3 3 3 3 3 6 6 3 3 3 3 3 0 0 0 0 0 0 0 0 0 0 0 0 0 0 0 0 0 0 0 0 0 0 0 0 0
0 0 3 3 3 3 3 3 3 3 3 6 6 3 3 3 3 0 0 0 0 0 0 0 0 0 0 0 0 0 0 0 0 0 0 0 0 0 0 0 0 0 0
0 3 0 3 3 3 3 3 3 3 3 3 3 3 3 3 3 0 0 0 0 0 0 0 0 0 0 0 0 0 0 0 0 0 0 0 0 0 0 0 0 0 0
0 0 0 3 3 3 3 3 3 3 3 3 3 3 3 0 0 0 0 0 0 0 0 0 0 0 0 0 0 0 0 0 0 0 0 0 0 0 0 0 0 0 0
0 0 3 3 3 3 0 0 0 3 3 0 0 0 0 0 0 0 0 0 0 0 0 0 0 0 0 0 0 0 0 0 0 0 0 0 0 0 0 0 0 0 0
6 6 6 6 6 3 0 0 0 3 3 3 0 0 0 0 0 0 0 0 0 0 0 0 0 0 0 0 0 0 0 0 0 0 0 0 0 0 0 0 0 0 0
6 6 6 6 6 3 0 0 0 0 0 0 0 0 0 0 0 0 0 0 0 0 0 0 0 0 0 0 0 0 0 0 0 0 0 0 0 0 0 0 0 0 0
6 6 6 10 6 6 0 0 0 0 0 0 0 0 0 0 0 0 0 0 0 0 0 0 0 0 0 0 0 0 0 0 0 0 0 0 0 0 0 0 0 0 0
0 3 3 6 6 6 0 0 0 0 0 0 0 0 0 0 0 0 0 0 0 0 0 0 0 0 0 0 0 0 0 0 0 0 0 0 0 0 0 0 0 0 0
Height
5859 5858 5858 5858 5859 5859 5858 5858 5858 5858 5858 5858 5858 5858 5857 5857 5857 5856 5856 5856 5856 5855 5855 5854 5854 5853 5853 5852 5852 5852 5852 5852 5852 5851 5851 5851 5850 5850 5850 5850 5850 5850 5849
5857 5857 5857 5857 5857 5857 5857 5856 5856 5856 5856 5855 5855 5855 5855 5855 5854 5854 5854 5854 5853 5853 5852 5852 5852 5851 5851 5850 5849 5849 5849 5849 5849 5849 5849 5849 5849 5848 5848 5848 5848 5847 5847
5855 5855 5855 5855 5855 5855 5855 5855 5855 5854 5854 5853 5853 5853 5853 5852 5852 5852 5851 5851 5851 5851 5850 5850 5850 5849 5848 5848 5847 5847 5847 5847 5847 5847 5847 5847 5847 5847 5846 5846 5845 5845 5844
5854 5854 5854 5854 5854 5854 5854 5853 5853 5853 5852 5852 5851 5851 5851 5850 5850 5850 5849 5849 5849 5849 5849 5848 5848 5847 5847 5846 5846 5846 5846 5845 5845 5846 5845 5845 5845 5844 5844 5844 5843 5842 5841
5852 5852 5852 5852 5852 5852 5852 5852 5851 5851 5850 5850 5850 5849 5849 5848 5848 5848 5848 5847 5847 5847 5847 5847 5846 5846 5845 5845 5844 5844 5844 5844 5844 5844 5844 5843 5843 5842 5842 5841 5841 5840 5839
5850 5850 5850 5850 5850 5850 5850 5850 5850 5849 5849 5848 5848 5848 5847 5847 5846 5846 5846 5845 5845 5845 5845 5845 5844 5844 5844 5844 5843 5843 5843 5842 5842 5842 5842 5841 5841 5841 5840 5840 5839 5838 5837
5848 5848 5848 5848 5848 5848 5849 5848 5848 5848 5847 5847 5847 5846 5846 5845 5845 5844 5844 5844 5844 5844 5844 5843 5843 5843 5842 5842 5842 5842 5841 5841 5840 5840 5840 5840 5839 5839 5838 5838 5837 5836 5835
5846 5846 5846 5846 5846 5847 5847 5847 5847 5846 5846 5846 5846 5845 5845 5845 5844 5843 5843 5843 5843 5843 5842 5842 5841 5841 5841 5840 5840 5840 5840 5839 5839 5838 5838 5838 5837 5837 5836 5836 5835 5834 5833
5844 5844 5844 5844 5844 5845 5845 5844 5845 5845 5844 5844 5844 5844 5843 5843 5842 5842 5842 5842 5842 5841 5841 5840 5840 5839 5839 5839 5838 5838 5838 5837 5837 5837 5836 5836 5836 5835 5835 5834 5833 5832 5830
5841 5841 5841 5842 5842 5842 5842 5842 5842 5843 5842 5842 5842 5842 5842 5841 5841 5841 5840 5840 5840 5839 5839 5838 5838 5837 5837 5837 5837 5836 5836 5836 5836 5835 5835 5834 5834 5833 5832 5832 5831 5829 5828
5839 5839 5839 5839 5839 5839 5840 5840 5840 5840 5840 5840 5840 5840 5839 5839 5839 5839 5838 5838 5838 5838 5837 5836 5836 5835 5835 5835 5835 5835 5834 5834 5834 5833 5833 5832 5832 5831 5830 5829 5828 5827 5825
5836 5836 5836 5836 5836 5836 5837 5837 5837 5838 5837 5838 5838 5837 5837 5837 5837 5837 5836 5836 5836 5836 5835 5835 5834 5833 5833 5833 5832 5832 5832 5832 5831 5831 5830 5830 5829 5828 5828 5827 5825 5824 5823
5833 5833 5833 5833 5833 5833 5834 5834 5834 5835 5835 5835 5835 5835 5835 5835 5834 5835 5834 5834 5834 5833 5833 5833 5832 5831 5831 5830 5830 5830 5829 5829 5829 5828 5828 5827 5827 5826 5825 5824 5823 5822 5821
5829 5829 5829 5829 5830 5830 5830 5831 5831 5831 5832 5832 5832 5832 5832 5832 5832 5832 5832 5832 5831 5831 5831 5830 5830 5829 5829 5828 5828 5827 5827 5826 5826 5826 5826 5825 5824 5823 5822 5821 5820 5819 5818
5825 5825 5825 5826 5826 5826 5827 5827 5827 5828 5828 5828 5829 5829 5829 5829 5829 5829 5829 5829 5829 5829 5828 5827 5827 5826 5826 5826 5825 5825 5824 5824 5824 5824 5823 5822 5822 5821 5820 5819 5818 5817 5816
5821 5821 5821 5821 5822 5822 5822 5823 5823 5824 5824 5825 5825 5825 5825 5825 5826 5826 5826 5826 5826 5825 5825 5824 5824 5824 5823 5823 5822 5822 5822 5822 5821 5821 5821 5820 5819 5818 5817 5816 5816 5814 5813
5816 5816 5816 5817 5818 5818 5818 5819 5819 5820 5820 5821 5821 5821 5821 5821 5822 5822 5822 5822 5822 5822 5822 5821 5820 5820 5820 5820 5819 5819 5819 5819 5819 5818 5818 5817 5816 5816 5814 5814 5813 5812 5810
5810 5811 5811 5812 5813 5813 5814 5814 5814 5815 5816 5816 5816 5816 5817 5817 5818 5818 5818 5818 5818 5818 5818 5818 5817 5817 5817 5817 5817 5816 5816 5816 5816 5815 5815 5814 5813 5812 5811 5810 5809 5808 5807
5805 5805 5806 5807 5807 5808 5809 5809 5810 5810 5811 5812 5812 5812 5812 5813 5813 5814 5814 5814 5814 5814 5814 5814 5814 5813 5814 5813 5813 5813 5813 5813 5812 5812 5811 5811 5810 5809 5808 5807 5806 5805 5804
5799 5799 5800 5801 5801 5802 5803 5804 5805 5805 5806 5807 5807 5807 5808 5808 5808 5809 5809 5809 5809 5809 5809 5810 5810 5810 5810 5810 5809 5809 5809 5809 5809 5808 5808 5807 5806 5805 5804 5803 5802 5801 5800
5793 5794 5794 5794 5795 5796 5797 5798 5799 5799 5800 5801 5801 5802 5802 5803 5803 5804 5804 5804 5804 5805 5805 5805 5805 5805 5805 5805 5805 5805 5805 5805 5805 5804 5804 5803 5802 5801 5800 5799 5798 5797 5796
5788 5788 5788 5788 5789 5790 5790 5791 5792 5793 5794 5795 5795 5796 5797 5797 5798 5798 5799 5799 5799 5800 5800 5800 5800 5800 5800 5801 5801 5801 5801 5801 5800 5800 5799 5799 5798 5797 5796 5795 5794 5793 5792
5781 5781 5782 5782 5782 5783 5784 5784 5785 5786 5787 5788 5788 5789 5790 5791 5792 5792 5793 5793 5794 5794 5794 5795 5795 5795 5795 5796 5796 5796 5796 5795 5795 5795 5794 5793 5793 5792 5791 5791 5790 5789 5788
5774 5774 5774 5775 5775 5776 5776 5777 5777 5778 5779 5780 5781 5782 5783 5784 5785 5785 5786 5787 5787 5788 5788 5789 5789 5789 5790 5790 5790 5790 5790 5790 5790 5789 5788 5788 5787 5787 5786 5786 5785 5784 5783
5767 5767 5767 5767 5767 5768 5768 5769 5769 5770 5771 5772 5773 5774 5775 5776 5777 5778 5779 5780 5781 5781 5782 5782 5782 5783 5783 5784 5784 5784 5784 5784 5784 5783 5782 5782 5782 5781 5780 5780 5779 5779 5778
5758 5758 5758 5758 5758 5759 5759 5760 5760 5761 5762 5763 5764 5765 5766 5768 5769 5770 5771 5772 5773 5774 5774 5775 5775 5776 5776 5777 5777 5777 5777 5777 5777 5777 5777 5776 5775 5775 5775 5774 5774 5773 5772
Wind_Speed
7 7 8 8 7 7 7 8 8 8 9 10 10 10 11 11 10 10 10 10 10 10 9 9 10 10 11 12 11 11 10 10 10 11 10 10 10 9 10 11 11 11 12
7 7 7 8 8 8 8 8 8 8 8 9 9 10 10 11 11 11 10 10 9 10 10 10 10 10 10 10 10 10 10 10 10 10 9 9 8 9 9 10 10 11 11
6 6 7 7 8 8 8 8 8 8 8 9 9 9 9 10 10 10 9 9 9 9 9 10 10 9 9 9 8 9 9 9 9 9 9 8 8 9 9 9 10 10 11
6 6 7 7 7 7 8 8 8 8 8 8 8 8 9 9 10 9 9 9 9 9 9 8 8 7 6 6 7 7 7 8 7 8 8 9 8 9 8 9 10 10 11
6 7 7 7 7 7 7 8 8 7 8 8 8 7 7 7 8 9 9 9 9 9 9 8 7 6 5 5 6 7 7 7 8 8 8 8 8 8 8 8 9 10 10
7 8 8 8 8 8 8 7 7 8 7 7 7 7 7 6 7 7 8 8 9 9 8 8 8 7 7 6 6 7 7 7 7 8 8 8 8 8 8 8 9 10 10
8 8 8 8 8 8 8 8 8 8 7 6 6 7 7 7 7 7 7 8 8 8 8 7 8 8 8 7 7 7 7 7 7 8 9 9 9 8 8 9 10 10 10
9 9 8 8 7 7 7 7 7 7 7 7 7 7 7 7 7 7 7 8 8 8 8 9 9 9 8 8 8 8 7 8 8 8 8 8 8 9 9 9 9 10 10
10 10 9 9 8 8 8 8 8 7 7 7 7 7 7 7 7 7 7 7 8 8 8 9 9 8 8 8 8 8 8 8 8 8 8 8 8 8 9 9 9 10 10
11 10 10 10 10 10 10 9 9 9 9 9 8 8 8 8 8 8 8 8 8 8 9 8 8 8 8 9 9 9 8 8 8 8 8 8 8 8 9 9 10 10 10
11 11 11 11 11 11 11 10 10 11 10 10 10 9 9 9 9 9 8 8 8 8 9 9 9 9 9 9 9 9 9 9 9 9 9 9 9 10 10 10 10 10 10
12 12 12 13 12 12 11 12 12 11 11 10 11 11 10 9 9 9 9 9 9 8 9 9 9 9 10 10 10 10 9 9 9 9 9 9 10 10 10 10 10 11 10
13 13 13 13 13 13 12 13 13 13 12 12 12 12 11 10 10 10 10 10 10 9 10 10 9 10 10 10 10 10 10 10 10 9 9 10 10 10 10 10 10 10 10
15 14 14 14 14 14 14 13 13 13 13 14 14 13 12 12 11 11 11 11 11 11 11 10 10 11 10 10 10 10 10 10 10 9 9 10 10 10 10 9 9 9 9
16 15 15 14 14 14 14 14 15 14 14 14 14 14 14 13 12 12 12 12 12 12 12 11 11 10 10 10 10 10 10 10 10 9 9 10 10 10 10 10 10 10 10
16 16 16 16 15 15 15 16 16 16 15 15 15 15 14 14 14 13 13 12 12 12 12 12 12 11 11 10 10 10 9 10 10 10 10 10 11 11 10 11 11 11 11
17 18 17 16 16 16 16 16 17 17 16 16 16 15 15 15 15 14 14 14 13 13 12 13 13 12 12 11 11 11 10 10 10 10 10 11 11 12 12 12 12 12 11
19 18 18 17 17 17 17 17 17 17 17 16 16 16 15 15 15 15 16 15 15 14 14 14 13 13 12 12 12 12 12 11 11 11 11 12 12 12 13 13 13 13 13
20 19 19 18 18 18 18 18 18 18 18 17 17 16 16 16 16 16 16 16 16 15 15 14 13 13 13 13 13 13 13 13 13 13 13 13 13 13 13 14 14 14 14
20 20 20 20 20 19 19 19 19 19 18 18 18 18 17 17 17 17 17 17 16 15 15 15 15 14 14 13 14 14 14 14 14 14 14 14 14 14 14 14 14 14 15
19 20 20 20 20 20 20 20 20 20 20 20 20 19 19 18 17 17 17 18 17 17 16 16 16 15 15 15 15 15 15 15 15 15 15 15 15 14 14 14 15 15 16
20 20 20 21 20 20 21 21 21 22 22 21 21 21 21 20 20 19 19 19 19 18 17 17 17 17 16 16 16 16 16 16 17 17 17 16 16 15 15 15 15 16 16
21 22 22 22 22 22 22 23 23 23 23 23 23 23 23 22 22 21 21 20 20 20 19 19 19 18 18 18 17 17 18 18 18 18 18 18 17 17 17 16 16 16 16
23 23 23 24 24 24 24 25 25 25 25 25 24 25 24 24 24 23 22 22 21 21 21 20 20 20 20 20 19 19 19 19 19 19 19 19 18 18 18 18 17 17 17
25 25 25 25 25 25 26 26 26 26 26 26 26 26 26 25 25 25 24 24 23 23 23 22 22 22 21 21 21 21 20 19 19 19 19 19 19 19 19 19 19 18 18
26 26 26 26 26 26 27 27 27 27 27 27 27 27 27 26 25 26 26 25 25 25 24 24 23 23 23 22 21 21 21 21 20 20 19 20 20 19 19 19 19 19 19
Wind_Direction
264 262 262 261 260 257 259 258 265 266 264 260 261 263 266 268 268 266 267 266 269 272 275 274 271 275 273 267 266 262 257 257 254 258 259 260 260 265 269 269 272 272 270
264 262 264 263 261 258 259 261 265 269 269 264 264 264 264 268 266 263 264 265 268 273 272 269 269 274 276 267 260 260 261 258 259 260 261 263 267 272 272 274 277 276 275
263 260 263 265 262 260 263 266 267 271 271 267 265 265 267 268 267 260 262 264 265 269 271 264 268 275 278 268 264 264 263 262 263 264 264 267 271 274 273 278 280 279 276
261 259 260 264 261 262 263 267 267 271 276 273 268 267 269 269 263 258 259 259 261 266 271 270 271 277 272 264 261 261 262 262 262 265 266 270 276 275 274 278 279 281 283
262 263 263 265 265 265 266 265 269 277 280 277 270 273 272 268 260 259 261 260 261 262 265 267 270 275 274 268 260 263 264 265 266 265 268 273 276 275 279 281 285 288 288
262 265 267 265 261 262 264 267 273 277 279 270 274 277 275 272 266 264 263 265 263 262 269 276 275 276 276 273 268 265 268 269 270 264 265 270 273 276 278 283 291 293 294
261 263 262 257 252 257 263 267 271 270 272 267 274 280 279 276 273 268 270 269 266 269 277 283 274 274 268 265 260 261 264 268 269 269 269 269 268 274 277 287 292 296 299
262 262 260 257 257 259 264 268 270 264 267 269 274 277 278 277 274 272 272 271 270 274 278 279 274 272 266 259 255 255 258 264 269 269 268 268 271 277 281 288 292 296 300
265 264 262 257 258 262 262 262 264 266 269 271 277 280 277 279 278 272 269 269 271 273 278 279 276 271 262 258 263 266 262 264 266 267 272 273 274 279 283 286 292 299 301
264 264 263 262 259 258 257 257 258 261 267 269 271 273 274 273 274 271 267 267 271 272 274 277 277 267 263 265 268 277 276 275 272 275 276 278 280 282 284 286 290 298 300
266 264 263 261 260 258 255 257 260 262 265 266 267 269 272 273 271 270 267 266 269 269 272 273 273 271 269 270 270 271 273 276 277 279 278 280 280 282 285 290 292 295 297
266 264 264 262 260 257 255 258 258 265 263 264 267 270 268 268 266 267 265 266 268 269 270 271 270 274 272 270 270 271 273 272 273 275 277 279 281 283 284 288 293 294 294
265 263 263 262 261 258 257 257 258 261 262 262 264 267 265 265 262 262 265 269 268 270 272 271 275 276 272 270 272 270 272 272 272 274 277 278 279 281 284 286 292 296 298
266 262 262 262 262 261 259 259 258 260 261 262 263 264 263 261 261 260 265 268 268 272 273 271 274 275 271 269 270 269 270 271 272 273 275 278 280 279 281 285 290 295 297
265 261 259 261 261 261 260 260 260 259 260 261 261 261 260 260 260 261 265 267 269 270 269 270 273 274 271 268 268 268 268 268 270 272 276 279 278 278 278 280 285 290 292
264 262 259 257 260 261 261 260 259 257 258 260 261 260 259 260 260 260 261 264 264 265 266 268 270 269 269 267 266 265 266 270 270 270 274 278 278 279 279 279 283 287 288
264 263 259 258 259 261 261 260 259 258 258 260 260 261 261 261 259 259 261 262 263 262 263 266 269 267 268 266 265 263 264 266 266 269 273 277 279 277 280 280 280 283 286
265 262 260 261 262 261 261 260 259 259 258 258 259 261 258 257 257 260 263 263 262 261 261 264 265 263 264 265 264 263 262 264 267 270 273 277 280 278 278 279 279 282 285
264 261 261 261 261 260 259 259 258 258 258 257 259 259 258 258 258 260 262 261 262 263 260 258 259 261 263 265 264 263 262 265 267 271 275 277 278 278 278 279 281 283 285
263 262 262 261 260 259 258 257 258 257 258 258 260 261 260 259 260 260 260 261 260 260 258 257 257 259 261 265 265 264 262 264 267 271 275 277 278 278 279 279 280 283 287
265 263 263 262 260 258 257 256 258 258 257 259 259 260 260 259 261 261 259 261 260 260 258 258 259 257 259 263 266 263 262 264 268 272 275 277 278 277 278 280 281 283 286
264 263 263 262 260 259 258 257 257 257 258 259 259 259 259 259 259 261 259 260 260 259 257 257 259 259 260 263 266 265 264 266 269 272 273 274 275 275 276 278 280 284 287
264 264 262 262 261 260 259 259 259 257 257 259 259 259 258 258 258 260 260 259 259 258 258 258 258 259 261 262 264 265 265 265 268 272 273 273 273 274 274 276 278 283 287
266 265 262 262 262 262 262 261 260 259 259 259 259 258 258 258 258 259 260 259 259 258 258 258 257 259 261 263 263 263 265 266 269 272 272 272 273 273 275 276 278 281 286
266 265 265 264 264 264 264 264 263 261 260 260 259 259 258 257 257 258 259 258 259 258 258 259 258 258 260 262 263 264 266 266 268 272 273 272 272 272 273 274 276 280 283
265 266 266 266 266 265 265 265 264 262 260 259 259 258 257 256 256 257 258 258 258 259 259 258 257 257 258 260 262 263 265 265 267 270 272 273 272 273 272 273 275 277 279